Regional Weather Roundup
Issued by NWS Wilmington, NC

Home | Current Version | Previous Version | Text Only | Print | Product List | Glossary On
Versions: 1 2 3 4 5 6 7 8 9 10 11 12 13 14 15 16 17 18 19 20 21 22 23 24 25 26 27 28 29 30 31 32 33 34 35 36 37 38 39 40 41 42 43 44 45 46 47
979
ASUS42 KILM 250112
RWRILM
RWRILM
REGIONAL HOURLY WEATHER ROUNDUP
NATIONAL WEATHER SERVICE WILMINGTON NC
900 PM EDT WED AUG 24 2016

NOTE: "FAIR" INDICATES FEW OR NO CLOUDS BELOW 12,000 FEET WITH NO
SIGNIFICANT WEATHER AND/OR OBSTRUCTIONS TO VISIBILITY.

...............WFO WILMINGTON COUNTY WARNING AREA...............

......COASTAL NC AND SC COUNTIES......

CITY           SKY/WX    TMP DP  RH WIND       PRES   REMARKS
WILMINGTON     PTCLDY    76  65  68 N3        30.19S
N MYRTLE BEACH PTCLDY    74  64  71 N3        30.18R
MYRTLE BEACH   PTCLDY    81  59  47 NE6       30.20S

......INLAND NC AND SC COUNTIES.......

CITY           SKY/WX    TMP DP  RH WIND       PRES   REMARKS
LUMBERTON      CLOUDY    77  64  64 NE3       30.19R
ELIZABETHTOWN  CLOUDY    75  65  69 CALM      30.19S
WHITEVILLE     MOCLDY    73  67  80 CALM      30.18S
FLORENCE       PTCLDY    78  66  66 E3        30.19S
DARLINGTON     NOT AVBL
KINGSTREE      FAIR      75  63  64 CALM      30.18R
HARTSVILLE     FAIR      77  63  61 CALM      30.19S
BENNETTSVILLE  FAIR      79  66  65 E5        30.18F
CONWAY         FAIR      72  64  78 CALM      30.19R
GEORGETOWN     FAIR      73  66  78 E3        30.19S
MARION         FAIR      72  64  78 CALM      30.18S

....................REST OF NORTH CAROLINA......................

.........EASTERN NC.........

CITY           SKY/WX    TMP DP  RH WIND       PRES   REMARKS
CAPE HATTERAS  CLEAR     76  69  79 E6        30.20S
JACKSONVILLE   MOCLDY    73  68  84 CALM      30.20S
MOREHEAD CITY  CLOUDY    76  74  93 N3        30.19S
KENANSVILLE    NOT AVBL
NEW BERN       PTCLDY    75  68  78 E3        30.21R
ELIZABETH CITY CLEAR     75  68  78 E7        30.22R

.........CENTRAL NC.........

CITY           SKY/WX    TMP DP  RH WIND       PRES   REMARKS
RALEIGH DURHAM PTCLDY    76  64  66 CALM      30.22R
ROCKY MOUNT    PTCLDY    70  67  90 CALM      30.21S
ROANOKE RAPIDS NOT AVBL
FAYETTEVILLE   PTCLDY    75  65  70 E3        30.19S
HOFFMAN        CLEAR     75  63  66 E3        30.20S

.........WESTERN NC.........

CITY           SKY/WX    TMP DP  RH WIND       PRES   REMARKS
CHARLOTTE      MOCLDY    82  66  58 VRB5      30.21S
GREENSBORO     MOCLDY    77  65  66 S7        30.21S
HICKORY        NOT AVBL
BOONE          NOT AVBL
ASHEVILLE      NOT AVBL

.....................REST OF SOUTH CAROLINA.....................

.........EASTERN SC.........

CITY           SKY/WX    TMP DP  RH WIND       PRES   REMARKS
CHARLESTON     PTCLDY    80  64  58 SE6       30.17S
BEAUFORT MCAS  PTCLDY    78  69  73 CALM      30.18R
HILTON HEAD    PTCLDY    81  66  61 VRB6      30.18R

.........CENTRAL SC.........

CITY           SKY/WX    TMP DP  RH WIND       PRES   REMARKS
COLUMBIA       PTCLDY    82  64  54 SE5       30.17S
ORANGEBURG     PTCLDY    80  64  58 CALM      30.18S
SUMTER SHAW    CLEAR     80  66  62 SE2       30.16S

.........WESTERN SC.........

CITY           SKY/WX    TMP DP  RH WIND       PRES   REMARKS
GREENVILLE     NOT AVBL
ROCK HILL      PTCLDY    79  68  69 CALM      30.21S
ANDERSON       CLEAR     76  71  85 CALM      30.21R
CLEMSON        NOT AVBL
GREENWOOD      CLEAR     75  69  81 CALM      30.22R


...................COASTAL AND OFFSHORE REPORTS..................

................LOCAL PIERS AND NC RESERVE................


STATION/POSITION TIME  SKY/WX   TEMP    WIND        PRES    VSBY
                                AIR SEA DIR/SP/G
                 (UTC)          (F)     (DEG/KT/KT) (MB)    (MI)
JOHNY MRCER PIER 0000            80 84   10/  7/  8 1021.1F
NC RESRV MASNBRO NOT AVBL
OCEAN CREST PIER NOT AVBL
SPRINGMAID  PIER 0000            81 84   90/  9/ 10 1021.6R


................COASTAL AND OFFSHORE BUOYS................


STATION/POSITION TIME  SKY/WX   TEMP    WIND        PRES    VSBY
                                AIR SEA DIR/SP/G
                 (UTC)          (F)     (DEG/KT/KT) (MB)    (MI)
DIMNDSHOAL 41025 0050            81 84   80/ 12/ 16 1022.4R
WVE H/P(F/S)=  3/11 SWL H/P/D(F/S/D)=  2/ 90/11

CAPE LOOKOUT     0100            81      90/ 12/ 12 1021.9R
ONSLOW BAY 41036 NOT AVBL
ONSLOW BAY 41064 0008            80 84   60/ 10/ 12 1021.8R
ONSLOW BAY 41159 0025               84                N/A
WVE H/P(F/S)=  3/ 5

5SE WRITBC 41038 0008            81 83   50/  8/ 10 1023.0S
MASNBO INL 41110 0006               83                N/A
WVE H/P(F/S)=  2/ 5

WILM HARBR 41108 0026               85                N/A
WVE H/P(F/S)=  2/11

27SE WRITB 41037 0008            81 84   40/ 12/ 16 1021.9R
FRYING PAN 41013 0100            82 85   30/ 14/ 16 1021.1R
SUNST NRSH 41024 0008            82 85   40/ 10/ 14 1021.7R
CAPRS NRSH 41029 0008            82 84   80/ 10/ 14 1021.5R
EDISTO     41004 0050            81 84   60/ 14/ 16 1021.0R
WVE H/P(F/S)=  4/ 6 SWL H/P/D(F/S/D)=  2/ 90/ 7



..........OFFSHORE BUOYS BEYOND 100 NM OFFSHORE...........
.....IN A TRIANGLE---HAT TO BERMUDA TO BAHAMAS TO HAT.....


STATION/POSITION TIME  SKY/WX   TEMP    WIND        PRES    VSBY
                                AIR SEA DIR/SP/G
                 (UTC)          (F)     (DEG/KT/KT) (MB)    (MI)
150E HAT   41001 NOT AVBL
W BERMUDA  41048 0050            83 84   50/ 17/ 19 1018.3R
WVE H/P(F/S)=  6/ 7

ATLANTIC S 41049 0050            84 85   90/  8/ 10 1019.5R
WVE H/P(F/S)=  5/ 8 SWL H/P/D(F/S/D)=  5/ 90/ 8

E BAHAMAS  41046 0100            85 85   90/ 17/ 21 1015.8R
NE BAHAMAS 41047 0100            85 87   90/  8/ 10 1016.4R
120E CANVRL41010 NOT AVBL

END




USA.gov is the U.S. government's official web portal to all federal, state and local government web resources and services.